Weather in Turgenevo

Russia / Saratov Oblast     51°54′35″N   44°57′56″E
temp.,
°C
wind,
m/s
gust,
m/s
humid.,
%
clouds,
%
prec.,
mm/h
press.,
hPa
HPBL,
m
17 september, fri
fri1701:00+6nw35906 0.0 101897
04:00+7nw2480100 0.0 1019144
07:00+8wnw2578100 0.0 1019290
10:00+9nw3562100 0.0 1019631
13:00+11nnw464595 0.0 10191582
16:00+13nw454295 0.0 10181672
19:00+10n4550100 0.0 1018494
22:00+8nne3650100 0.0 1018498
18 september, sat
sat1801:00+7ene2453100 0.0 1019321
04:00+7ne2454100 0.0 1019332
07:00+4nne346786 0.0 102172
10:00+8ne4552100 0.0 1021814
13:00+11ne3337100 0.0 10211287
16:00+13ne3331100 0.0 10211343
19:00+9ne2238100 0.0 102111
22:00+8ene3346100 0.0 102244
19 september, sun
sun1901:00+7e4956100 0.0 1023297
04:00+5e4965100 0.0 1023224
07:00+4e497295 0.0 1024228
10:00+10ese6749100 0.0 1024654
13:00+13se563694 0.0 10221120
16:00+13se5734100 0.0 10211052
19:00+12ese4836100 0.0 1021323
22:00+12ese61236100 0.0 1020549
20 september, mon
mon2001:00+9ese71460100 0.9 1020564
04:00+8ese81568100 2.8 1019504
07:00+6ese81679100 4.1 1019612
10:00+6ese81682100 10.5 1019644
13:00+7ese81680100 0.5 1019616
16:00+7ese81584100 1.1 1019513
19:00+7ese81582100 0.0 1019553
22:00+7ese81685100 0.1 1019489
21 september, tue
tue2101:00+8e71584100 0.5 1018482
04:00+7ese51289100 2.4 1017521
07:00+8e5118556 1.6 1016417
10:00+11ese687688 1.6 1016468
13:00+14se4669100 0.0 1015807
16:00+14ese4668100 0.3 1014624
19:00+12ese3784100 0.6 1014221
22:00+11ese368791 0.8 1014200